Hourly Weather Mendoza

Today, 26 September, Saturday

Time Temperature Precipitation Wind Pressure Humidity
00:00 +17°C° 0 mm 5 mps 695 mmHg 70%
01:00 +18°C° 0 mm 4 mps 695 mmHg 68%
02:00 +18°C° 0 mm 4 mps 695 mmHg 69%
03:00 +17°C° 0 mm 4 mps 695 mmHg 70%
04:00 +17°C° 0 mm 3 mps 695 mmHg 72%
05:00 +18°C° 0 mm 4 mps 696 mmHg 64%
06:00 +18°C° 0 mm 4 mps 696 mmHg 56%
07:00 +19°C° 0 mm 4 mps 697 mmHg 48%
08:00 +20°C° 0 mm 5 mps 697 mmHg 43%
09:00 +21°C° 0 mm 5 mps 697 mmHg 38%
10:00 +22°C° 0 mm 6 mps 697 mmHg 32%
11:00 +22°C° 0 mm 6 mps 697 mmHg 31%
12:00 +22°C° 0 mm 6 mps 697 mmHg 30%
13:00 +23°C° 0 mm 5 mps 696 mmHg 29%
14:00 +23°C° 0 mm 5 mps 696 mmHg 27%
15:00 +23°C° 0 mm 4 mps 696 mmHg 24%
16:00 +23°C° 0 mm 4 mps 696 mmHg 21%
17:00 +22°C° 0 mm 3 mps 697 mmHg 24%
18:00 +20°C° 0 mm 3 mps 697 mmHg 26%
19:00 +19°C° 0 mm 3 mps 698 mmHg 29%
20:00 +17°C° 0 mm 3 mps 698 mmHg 37%
21:00 +16°C° 0 mm 2 mps 699 mmHg 45%
22:00 +15°C° 0 mm 2 mps 699 mmHg 54%
23:00 +14°C° 0 mm 2 mps 699 mmHg 56%

Tomorrow, 27 September, Sunday

Time Temperature Precipitation Wind Pressure Humidity
00:00 +14°C° 0 mm 1 mps 698 mmHg 59%
01:00 +13°C° 0 mm 1 mps 698 mmHg 61%
02:00 +13°C° 0 mm 1 mps 698 mmHg 65%
03:00 +12°C° 0 mm 1 mps 698 mmHg 68%
04:00 +12°C° 0 mm 1 mps 698 mmHg 71%
05:00 +13°C° 0 mm 1 mps 699 mmHg 65%
06:00 +14°C° 0 mm 1 mps 699 mmHg 60%
07:00 +15°C° 0 mm 1 mps 700 mmHg 54%
08:00 +17°C° 0 mm 2 mps 700 mmHg 47%
09:00 +18°C° 0 mm 3 mps 700 mmHg 40%
10:00 +19°C° 0 mm 3 mps 699 mmHg 34%
11:00 +20°C° 0 mm 3 mps 699 mmHg 30%
12:00 +21°C° 0 mm 4 mps 699 mmHg 27%
13:00 +22°C° 0 mm 4 mps 698 mmHg 24%
14:00 +22°C° 0 mm 4 mps 698 mmHg 22%
15:00 +22°C° 0 mm 3 mps 698 mmHg 21%
16:00 +24°C° 0 mm 3 mps 698 mmHg 20%
17:00 +21°C° 0 mm 3 mps 698 mmHg 21%
18:00 +20°C° 0 mm 4 mps 698 mmHg 22%
19:00 +18°C° 0 mm 4 mps 698 mmHg 23%
20:00 +17°C° 0 mm 4 mps 698 mmHg 25%
21:00 +17°C° 0 mm 3 mps 698 mmHg 27%
22:00 +16°C° 0 mm 3 mps 698 mmHg 29%
23:00 +14°C° 0 mm 3 mps 698 mmHg 30%

Day after tomorrow, 28 September, Monday

Time Temperature Precipitation Wind Pressure Humidity
00:00 +15°C° 0 mm 2 mps 697 mmHg 31%
01:00 +14°C° 0 mm 2 mps 696 mmHg 32%
02:00 +13°C° 0 mm 2 mps 696 mmHg 35%
03:00 +13°C° 0 mm 1 mps 695 mmHg 37%
04:00 +12°C° 0 mm 1 mps 695 mmHg 39%
05:00 +13°C° 0 mm 1 mps 695 mmHg 36%
06:00 +14°C° 0 mm 1 mps 695 mmHg 33%
07:00 +16°C° 0 mm 1 mps 696 mmHg 31%
08:00 +18°C° 0 mm 2 mps 695 mmHg 27%
09:00 +20°C° 0 mm 3 mps 695 mmHg 24%
10:00 +22°C° 0 mm 4 mps 695 mmHg 20%
11:00 +23°C° 0 mm 5 mps 694 mmHg 18%
12:00 +26°C° 0 mm 6 mps 694 mmHg 17%
13:00 +27°C° 0 mm 7 mps 693 mmHg 15%
14:00 +27°C° 0 mm 6 mps 693 mmHg 14%
15:00 +27°C° 0 mm 6 mps 692 mmHg 14%
16:00 +27°C° 0 mm 6 mps 691 mmHg 14%
17:00 +26°C° 0 mm 5 mps 692 mmHg 17%
18:00 +23°C° 0 mm 5 mps 692 mmHg 20%
19:00 +22°C° 0 mm 4 mps 692 mmHg 22%
20:00 +20°C° 0 mm 3 mps 692 mmHg 26%
21:00 +19°C° 0 mm 3 mps 691 mmHg 30%
22:00 +18°C° 0 mm 2 mps 691 mmHg 34%
23:00 +18°C° 0 mm 2 mps 691 mmHg 35%

29 September, Tuesday

Time Temperature Precipitation Wind Pressure Humidity
00:00 +17°C° 0 mm 2 mps 691 mmHg 35%
01:00 +16°C° 0 mm 2 mps 690 mmHg 36%
02:00 +16°C° 0 mm 3 mps 690 mmHg 35%
03:00 +14°C° 0 mm 3 mps 691 mmHg 33%
04:00 +14°C° 0 mm 3 mps 691 mmHg 32%
05:00 +15°C° 0 mm 4 mps 692 mmHg 29%
06:00 +17°C° 0 mm 5 mps 693 mmHg 25%
07:00 +19°C° 0 mm 6 mps 693 mmHg 21%
08:00 +21°C° 0 mm 6 mps 694 mmHg 19%
09:00 +22°C° 0 mm 6 mps 694 mmHg 17%
10:00 +23°C° 0 mm 6 mps 694 mmHg 14%
11:00 +25°C° 0 mm 5 mps 694 mmHg 13%
12:00 +26°C° 0 mm 5 mps 694 mmHg 11%
13:00 +27°C° 0 mm 5 mps 693 mmHg 10%
14:00 +27°C° 0 mm 5 mps 693 mmHg 9%
15:00 +27°C° 0 mm 5 mps 693 mmHg 9%
16:00 +27°C° 0 mm 5 mps 693 mmHg 9%
17:00 +25°C° 0 mm 4 mps 693 mmHg 13%
18:00 +22°C° 0 mm 4 mps 693 mmHg 16%
19:00 +19°C° 0 mm 3 mps 693 mmHg 20%
20:00 +18°C° 0 mm 3 mps 694 mmHg 23%
21:00 +18°C° 0 mm 2 mps 694 mmHg 25%
22:00 +17°C° 0 mm 2 mps 694 mmHg 27%
23:00 +16°C° 0 mm 2 mps 694 mmHg 27%

30 September, Wednesday

Time Temperature Precipitation Wind Pressure Humidity
00:00 +16°C° 0 mm 3 mps 694 mmHg 28%
01:00 +16°C° 0 mm 3 mps 694 mmHg 28%
02:00 +16°C° 0 mm 3 mps 693 mmHg 27%
03:00 +14°C° 0 mm 3 mps 693 mmHg 25%
04:00 +14°C° 0 mm 3 mps 693 mmHg 24%
05:00 +16°C° 0 mm 3 mps 694 mmHg 22%
06:00 +18°C° 0 mm 3 mps 695 mmHg 21%
07:00 +19°C° 0 mm 4 mps 695 mmHg 19%
08:00 +19°C° 0 mm 5 mps 695 mmHg 23%
09:00 +20°C° 0 mm 6 mps 695 mmHg 26%
10:00 +20°C° 0 mm 7 mps 695 mmHg 30%
11:00 +21°C° 0 mm 6 mps 695 mmHg 28%
12:00 +21°C° 0 mm 6 mps 695 mmHg 25%
13:00 +22°C° 0 mm 6 mps 695 mmHg 23%
14:00 +22°C° 0 mm 5 mps 695 mmHg 22%
15:00 +21°C° 0 mm 5 mps 695 mmHg 21%
16:00 +21°C° 0 mm 5 mps 695 mmHg 20%
17:00 +19°C° 0 mm 4 mps 696 mmHg 23%
18:00 +17°C° 0 mm 3 mps 696 mmHg 25%
19:00 +15°C° 0 mm 2 mps 697 mmHg 28%
20:00 +14°C° 0 mm 2 mps 697 mmHg 30%
21:00 +13°C° 0 mm 1 mps 697 mmHg 31%
22:00 +12°C° 0 mm 1 mps 697 mmHg 33%
23:00 +11°C° 0 mm 1 mps 697 mmHg 33%

1 October, Thursday

Time Temperature Precipitation Wind Pressure Humidity
00:00 +11°C° 0 mm 1 mps 697 mmHg 32%
01:00 +11°C° 0 mm 1 mps 697 mmHg 32%
02:00 +10°C° 0 mm 1 mps 697 mmHg 30%
03:00 +10°C° 0 mm 1 mps 697 mmHg 28%
04:00 +10°C° 0 mm 1 mps 697 mmHg 26%
05:00 +10°C° 0 mm 2 mps 697 mmHg 23%
06:00 +12°C° 0 mm 2 mps 698 mmHg 20%
07:00 +12°C° 0 mm 3 mps 699 mmHg 16%
08:00 +13°C° 0 mm 4 mps 699 mmHg 16%
09:00 +14°C° 0 mm 4 mps 699 mmHg 16%
10:00 +14°C° 0 mm 5 mps 699 mmHg 16%
11:00 +15°C° 0 mm 5 mps 699 mmHg 16%
12:00 +16°C° 0 mm 5 mps 698 mmHg 16%
13:00 +16°C° 0 mm 5 mps 698 mmHg 17%
14:00 +16°C° 0 mm 5 mps 698 mmHg 17%
15:00 +16°C° 0 mm 5 mps 698 mmHg 18%
16:00 +16°C° 0 mm 5 mps 698 mmHg 19%
17:00 +14°C° 0 mm 5 mps 699 mmHg 23%
18:00 +12°C° 0 mm 4 mps 699 mmHg 27%
19:00 +11°C° 0 mm 4 mps 700 mmHg 32%
20:00 +10°C° 0 mm 4 mps 701 mmHg 35%
21:00 +9°C° 0 mm 3 mps 701 mmHg 37%
22:00 +8°C° 0 mm 3 mps 702 mmHg 40%
23:00 +8°C° 0 mm 3 mps 702 mmHg 40%
Show more